Flag for Germany Weather past 2 weeks in Gorleben, Lower Saxony, Germany

Now
48 °F

Light rain. Overcast.


Feels Like: 45 °F
Forecast: 39 / 46 °F
Wind: 8 mph from Southwest

Location: Marnitz

Current Time: Mar 30, 2015 at 12:50:56 AM

Latest Report: Mar 30, 2015 at 12:00 AM


Visibility: 22 mi

Pressure: 28.94 "Hg

Humidity: 94%

Dew point: 47 °F

Location of GorlebenLocation

Historic Weather in Gorleben — Graph

°F

Gorleben temperature yesterday

Maximum temperature yesterday: 51 °F (at 2:00 PM)
Minimum temperature yesterday: 44 °F (at 3:00 AM)
Average temperature yesterday: 48 °F

Past Weeks' High & Low Weather Summary

 TemperatureHumidityPressure
High59 °F (Mar 17, 4:00 PM)99% (Mar 25, 3:00 AM)30.49 "Hg (Mar 25, 3:00 AM)
Low27 °F (Mar 22, 6:00 AM)23% (Mar 18, 5:00 PM)29.03 "Hg (Mar 29, 10:00 PM)
Average42 °F74%30.08 "Hg
* Reported Mar 14 9:00 PM — Mar 29 10:00 PM, Gorleben, Weather by CustomWeather, © 2015

Note: Actual official high and low records may vary slightly from our data, if they occured in-between our weather recording intervals... More about our weather records

Advertising

Gorleben weather history for previous 24 hours

 ConditionsComfort  
Time TempWeatherWind HumidityBarometerVisibility
10:00 PM
Sun, Mar 29
48 °FLight rain. Low clouds.6 mph96%29.03 "Hg4 mi
9:00 PM47 °FLight rain. Low clouds.6 mph95%29.09 "Hg4 mi
8:00 PM47 °FLight rain. Low clouds.5 mph97%29.18 "Hg7 mi
7:00 PM46 °FLight rain. Low clouds.3 mph97%29.21 "Hg6 mi
6:00 PM46 °FLight rain. Low clouds.3 mph97%29.26 "Hg3 mi
5:00 PM46 °FLight freezing rain. Overcast.3 mph97%29.32 "Hg4 mi
4:00 PM46 °FRain. Overcast.3 mph95%29.35 "Hg3 mi
3:00 PM51 °FOvercast.6 mph75%29.35 "Hg28 mi
2:00 PM51 °FOvercast.6 mph79%29.41 "Hg31 mi
1:00 PM51 °FDrizzle. Overcast.6 mph88%29.44 "Hg15 mi
12:00 PM49 °FDrizzle. Overcast.6 mph92%29.44 "Hg4 mi
11:00 AM51 °FOvercast.6 mph87%29.47 "Hg19 mi
10:00 AM50 °FDrizzle. Overcast.7 mph91%29.47 "Hg12 mi
9:00 AM49 °FLight rain. Overcast.6 mph92%29.47 "Hg12 mi
8:00 AM49 °FLight rain. Overcast.6 mph94%29.50 "Hg8 mi
7:00 AM48 °FLight rain. Overcast.6 mph92%29.50 "Hg7 mi
5:00 AM46 °FLow clouds.6 mph95%29.56 "Hg3 mi
4:00 AM45 °FDrizzle. Low clouds.7 mph96%29.61 "Hg2 mi
3:00 AM44 °FLow clouds.5 mph96%29.65 "Hg3 mi
1:00 AM46 °FLight rain. Overcast.6 mph81%29.69 "Hg6 mi
12:00 AM46 °FOvercast.6 mph76%29.73 "Hg9 mi
Weather by CustomWeather, © 2015

See weather overviewHow to use our weather pages